Location: Byszew
(52.1813°N, 19.2693°E)
Time: 18:09:28
(UTC+00:00)

Cosmos 2219 Rocket - Pass Details

Date: 03 March 2021
Orbit: 826 x 848 km, 71.0° (Epoch: 17 April)

Event Time Altitude Azimuth Distance (km) Brightness Sun altitude
Rises 17:43:10 0° 164° (SSE) 3,355 5.1 -12.6°
Reaches altitude 10° 17:46:06 10° 149° (SSE) 2,429 4.2 -13.0°
Maximum altitude 17:50:12 22° 101° (ESE) 1,767 3.2 -13.6°
Enters shadow 17:53:20 14° 61° (ENE) 2,192 3.9 -14.1°
Exits shadow 17:55:06 - 49° (NE) 2,680 4.4 -14.4°
Sets 17:57:17 0° 39° (NE) 3,394 5.0 -14.7°
